CES2188 ZSAM-ZLXY

Flight info

Callsign CES2188
Flight time N/A
Altitude 37100
Route DOVPU7Y DOVPU W643 FOC W644 LEVGU/K0856S1100 W644 AKAVO/K0848S1130 A470 EMRID W135 ADBAS/K0854S1100 W135 DOGVI W545 VEMEX W163 HFE/K0845S1160 B208 TYN W87 GODON W43 GUTRU W47 LOVRA LOV2W
Aircraft A20N/M-SDE2E3FGHIRWXY/LB1

Departure

Time 2026-04-27 12:58
Airport Xiamen Gaoqi International Airport (ZSAM)

Arrival

Time N/A
Airport Xi'an Xianyang International Airport (ZLXY)
Time Latitude Longitude Altitude Speed Heading
2026-04-27 12:51 24.54831 118.14092 73 ft 0 kts 232°
2026-04-27 12:53 24.54840 118.14104 73 ft 2 kts 232°
2026-04-27 12:53 24.54849 118.14117 73 ft 2 kts 231°
2026-04-27 12:53 24.54855 118.14133 73 ft 2 kts 268°
2026-04-27 12:54 24.54853 118.14148 73 ft 2 kts 295°
2026-04-27 12:54 24.54846 118.14159 73 ft 0 kts 319°
2026-04-27 12:54 24.54840 118.14163 73 ft 1 kts 323°
2026-04-27 12:54 24.54840 118.14164 73 ft 0 kts 322°
2026-04-27 12:55 24.54840 118.14163 73 ft 0 kts 322°
2026-04-27 12:55 24.54862 118.14146 73 ft 10 kts 322°
2026-04-27 12:56 24.54978 118.14046 73 ft 25 kts 322°
2026-04-27 12:56 24.55081 118.13998 73 ft 14 kts 31°
2026-04-27 12:56 24.55178 118.14126 73 ft 23 kts 51°
2026-04-27 12:56 24.55264 118.14148 73 ft 14 kts 323°
2026-04-27 12:57 24.55324 118.14047 73 ft 18 kts 252°
2026-04-27 12:57 24.55285 118.13982 73 ft 1 kts 232°
2026-04-27 12:57 24.55211 118.13879 73 ft 48 kts 231°
2026-04-27 12:57 24.54862 118.13391 74 ft 111 kts 232°
2026-04-27 12:58 24.54276 118.12570 74 ft 161 kts 231°
2026-04-27 12:58 24.53522 118.11513 338 ft 180 kts 231°
2026-04-27 12:58 24.52749 118.10431 873 ft 184 kts 231°
2026-04-27 12:58 24.51954 118.09323 1484 ft 186 kts 231°
2026-04-27 12:59 24.51145 118.08195 2026 ft 193 kts 230°
2026-04-27 12:59 24.50282 118.06995 2458 ft 206 kts 231°
2026-04-27 12:59 24.49398 118.05762 3023 ft 213 kts 231°
2026-04-27 12:59 24.48442 118.04432 3422 ft 231 kts 231°
2026-04-27 13:00 24.47410 118.02994 3956 ft 244 kts 231°
2026-04-27 13:00 24.46362 118.01530 4723 ft 245 kts 231°
2026-04-27 13:00 24.45320 118.00075 5517 ft 246 kts 231°
2026-04-27 13:00 24.44106 117.98766 6205 ft 248 kts 207°
2026-04-27 13:01 24.42427 117.98393 6868 ft 251 kts 170°
2026-04-27 13:01 24.40882 117.99184 7517 ft 254 kts 135°
2026-04-27 13:01 24.40025 118.00867 8144 ft 259 kts 101°
2026-04-27 13:01 24.39881 118.02825 8778 ft 262 kts 94°
2026-04-27 13:02 24.39854 118.04848 9364 ft 267 kts 81°
2026-04-27 13:02 24.40538 118.06739 9941 ft 272 kts 54°
2026-04-27 13:02 24.41748 118.08319 10518 ft 275 kts 47°
2026-04-27 13:02 24.43058 118.09877 11067 ft 279 kts 48°
2026-04-27 13:03 24.44350 118.11498 11599 ft 284 kts 51°
2026-04-27 13:03 24.45623 118.13212 11899 ft 299 kts 52°
2026-04-27 13:03 24.46963 118.15076 12180 ft 315 kts 52°
2026-04-27 13:03 24.48341 118.17016 12448 ft 330 kts 52°
2026-04-27 13:04 24.49776 118.19040 12710 ft 345 kts 52°
2026-04-27 13:04 24.51279 118.21163 12964 ft 360 kts 52°
2026-04-27 13:04 24.53069 118.23170 13181 ft 374 kts 33°
2026-04-27 13:04 24.55486 118.24254 13410 ft 384 kts
2026-04-27 13:05 24.58171 118.24136 13652 ft 390 kts 342°
2026-04-27 13:05 24.60672 118.23032 14098 ft 392 kts 332°
2026-04-27 13:05 24.63162 118.21725 14660 ft 394 kts 331°
2026-04-27 13:05 24.65617 118.20427 15206 ft 397 kts 331°
2026-04-27 13:06 24.68116 118.19106 15742 ft 399 kts 331°
2026-04-27 13:06 24.70638 118.17773 16165 ft 404 kts 331°
2026-04-27 13:06 24.73202 118.16419 16593 ft 409 kts 331°
2026-04-27 13:06 24.75791 118.15054 17095 ft 412 kts 331°
2026-04-27 13:07 24.78360 118.13700 17599 ft 414 kts 331°
2026-04-27 13:07 24.80954 118.12331 18070 ft 416 kts 331°
2026-04-27 13:07 24.83579 118.10945 18552 ft 418 kts 331°
2026-04-27 13:07 24.86223 118.09550 19031 ft 419 kts 331°
2026-04-27 13:08 24.88844 118.08164 19488 ft 421 kts 331°
2026-04-27 13:08 24.91495 118.06764 19926 ft 423 kts 331°
2026-04-27 13:08 24.94144 118.05365 20362 ft 425 kts 331°
2026-04-27 13:08 24.96820 118.03951 20796 ft 426 kts 331°
2026-04-27 13:09 24.99508 118.02528 21223 ft 427 kts 332°
2026-04-27 13:09 25.02171 118.01121 21626 ft 429 kts 332°
2026-04-27 13:09 25.04892 117.99680 22013 ft 431 kts 332°
2026-04-27 13:09 25.07567 117.98265 22398 ft 432 kts 332°
2026-04-27 13:10 25.10300 117.96818 22802 ft 433 kts 332°
2026-04-27 13:10 25.13001 117.95386 23161 ft 435 kts 332°
2026-04-27 13:10 25.15745 117.93931 23499 ft 438 kts 332°
2026-04-27 13:10 25.18515 117.92461 23837 ft 440 kts 332°
2026-04-27 13:11 25.21267 117.91000 24169 ft 442 kts 332°
2026-04-27 13:11 25.24059 117.89519 24509 ft 444 kts 332°
2026-04-27 13:11 25.26844 117.88038 24827 ft 446 kts 332°
2026-04-27 13:11 25.29646 117.86549 25145 ft 448 kts 332°
2026-04-27 13:12 25.32444 117.85062 25455 ft 450 kts 332°
2026-04-27 13:12 25.35269 117.83557 25771 ft 451 kts 332°
2026-04-27 13:12 25.38117 117.82040 26064 ft 453 kts 332°
2026-04-27 13:12 25.40946 117.80532 26317 ft 455 kts 332°
2026-04-27 13:13 25.43819 117.79002 26574 ft 457 kts 332°
2026-04-27 13:13 25.46703 117.77462 26834 ft 459 kts 332°
2026-04-27 13:13 25.49549 117.75942 27082 ft 460 kts 332°
2026-04-27 13:13 25.52435 117.74401 27402 ft 459 kts 332°
2026-04-27 13:14 25.55299 117.72872 27783 ft 457 kts 332°
2026-04-27 13:14 25.58180 117.71333 28129 ft 456 kts 332°
2026-04-27 13:14 25.61013 117.69817 28452 ft 455 kts 332°
2026-04-27 13:14 25.63872 117.68286 28779 ft 454 kts 332°
2026-04-27 13:15 25.66700 117.66773 29117 ft 453 kts 332°
2026-04-27 13:15 25.69561 117.65241 29466 ft 452 kts 332°
2026-04-27 13:15 25.72372 117.63734 29787 ft 451 kts 332°
2026-04-27 13:15 25.75189 117.62225 30116 ft 450 kts 332°
2026-04-27 13:16 25.78001 117.60717 30456 ft 449 kts 332°
2026-04-27 13:16 25.80828 117.59201 30788 ft 447 kts 331°
2026-04-27 13:16 25.83612 117.57706 31114 ft 446 kts 331°
2026-04-27 13:16 25.86424 117.56195 31428 ft 445 kts 331°
2026-04-27 13:17 25.89202 117.54702 31723 ft 444 kts 331°
2026-04-27 13:17 25.91977 117.53210 32020 ft 443 kts 331°
2026-04-27 13:17 25.94742 117.51720 32309 ft 442 kts 330°
2026-04-27 13:17 25.97504 117.50231 32561 ft 441 kts 330°
2026-04-27 13:18 26.00265 117.48744 32821 ft 440 kts 330°
2026-04-27 13:18 26.03010 117.47264 33084 ft 439 kts 330°
2026-04-27 13:18 26.05750 117.45785 33355 ft 438 kts 330°
2026-04-27 13:18 26.08497 117.44301 33596 ft 437 kts 330°
2026-04-27 13:19 26.11233 117.42823 33856 ft 436 kts 330°
2026-04-27 13:19 26.13935 117.41363 34117 ft 434 kts 330°
2026-04-27 13:19 26.16642 117.39899 34358 ft 433 kts 330°
2026-04-27 13:19 26.19379 117.38419 34562 ft 433 kts 330°
2026-04-27 13:20 26.22061 117.36968 34759 ft 432 kts 330°
2026-04-27 13:20 26.24769 117.35501 34940 ft 432 kts 330°
2026-04-27 13:20 26.27481 117.34034 35139 ft 431 kts 330°
2026-04-27 13:20 26.30179 117.32572 35359 ft 430 kts 330°
2026-04-27 13:21 26.32880 117.31107 35524 ft 430 kts 330°
2026-04-27 13:21 26.35538 117.29663 35634 ft 431 kts 330°
2026-04-27 13:21 26.38268 117.28180 35750 ft 431 kts 330°
2026-04-27 13:21 26.40937 117.26732 35870 ft 432 kts 330°
2026-04-27 13:22 26.43658 117.25253 35982 ft 432 kts 330°
2026-04-27 13:22 26.46334 117.23799 36104 ft 432 kts 330°
2026-04-27 13:22 26.51767 117.20840 36256 ft 434 kts 330°
2026-04-27 13:23 26.57191 117.17887 36472 ft 433 kts 330°
2026-04-27 13:23 26.62612 117.14933 36618 ft 434 kts 330°
2026-04-27 13:24 26.68058 117.11958 36752 ft 435 kts 330°
2026-04-27 13:24 26.73458 117.09009 36884 ft 435 kts 329°
2026-04-27 13:25 26.78935 117.06011 36981 ft 436 kts 330°
2026-04-27 13:25 26.84372 117.03037 37065 ft 436 kts 329°
2026-04-27 13:26 26.89804 117.00058 37068 ft 436 kts 329°
2026-04-27 13:26 26.95281 116.97051 37065 ft 437 kts 330°
2026-04-27 13:27 27.00747 116.94048 37067 ft 437 kts 329°
2026-04-27 13:27 27.06209 116.91045 37062 ft 436 kts 330°
2026-04-27 13:28 27.11666 116.88042 37053 ft 437 kts 329°
2026-04-27 13:28 27.17118 116.85036 37044 ft 437 kts 329°
2026-04-27 13:29 27.22568 116.82031 37032 ft 437 kts 329°
2026-04-27 13:29 27.28037 116.79010 37028 ft 437 kts 329°
2026-04-27 13:30 27.33467 116.76006 37023 ft 437 kts 329°
2026-04-27 13:30 27.38915 116.72987 37024 ft 437 kts 329°
2026-04-27 13:31 27.44396 116.69952 37024 ft 438 kts 329°
2026-04-27 13:31 27.49840 116.66932 37024 ft 437 kts 329°
2026-04-27 13:32 27.55293 116.63901 37024 ft 438 kts 329°
2026-04-27 13:32 27.60761 116.60862 37025 ft 437 kts 329°
2026-04-27 13:33 27.66229 116.57816 37016 ft 437 kts 329°
2026-04-27 13:33 27.71678 116.54781 37004 ft 437 kts 329°
2026-04-27 13:34 27.77125 116.51740 36986 ft 437 kts 329°
2026-04-27 13:34 27.82592 116.48687 36982 ft 437 kts 329°
2026-04-27 13:35 27.88010 116.45657 36985 ft 436 kts 329°
2026-04-27 13:35 27.93486 116.42591 36979 ft 438 kts 329°
2026-04-27 13:36 27.98923 116.39546 36976 ft 437 kts 329°
2026-04-27 13:36 28.04379 116.36484 36975 ft 437 kts 329°
2026-04-27 13:37 28.09810 116.33433 36972 ft 437 kts 328°
2026-04-27 13:37 28.15270 116.30363 36970 ft 437 kts 328°
2026-04-27 13:38 28.20702 116.27302 36967 ft 437 kts 328°
2026-04-27 13:38 28.26157 116.24227 36962 ft 437 kts 328°
2026-04-27 13:39 28.30676 116.21679 36965 ft 438 kts 328°
2026-04-27 13:39 28.36121 116.18603 36962 ft 439 kts 328°
2026-04-27 13:40 28.38868 116.17051 36961 ft 438 kts 328°